Harbor Springs, MI

5:57 AM EST on November 21, 2017 (GMT -0500)
Harbor Springs

Weather History for KMGN - February, 2013

Change the Weather History Date:

Saturday, February 9, 2013

  Actual Average (KPLN) Record (KPLN)
Temperature  
Mean Temperature 12 °F -  
Max Temperature 28 °F 26 °F 51 °F (1966)
Min Temperature -5 °F 2 °F -30 °F (1951)
Degree Days  
Heating Degree Days 54    
Moisture  
Dew Point 5 °F    
Average Humidity 74    
Maximum Humidity 87    
Minimum Humidity 51    
Precipitation  
Precipitation 0.00 in - - ()
Sea Level Pressure  
Sea Level Pressure 30.31 in    
Wind  
Wind Speed 2 mph (East)    
Max Wind Speed 7 mph    
Max Gust Speed -    
Visibility 10 miles    
Events      
Averages and records for this station are not official NWS values.
T = Trace of Precipitation, MM = Missing Value Source: NWS Daily Summary

Daily Weather History Graph

Daily Weather History Graph

Search for Another Location

Airport or City:

Trip Planner

Search our weather history database for the weather conditions in past years. The results will help you decide how hot, cold, wet, or windy it might be!

Date:

Astronomy

Feb. 09, 2013 Rise Set
Actual Time 7:49 AM EST 5:58 PM EST
Civil Twilight 7:18 AM EST 6:29 PM EST
Nautical Twilight 6:44 AM EST 7:04 PM EST
Astronomical Twilight 6:09 AM EST 7:38 PM EST
Moon 7:00 AM EST (2/9) 5:42 PM EST (2/9)
Length of Visible Light 11h 10m
Length of Day
10h 08m
Waning Crescent, 0% of the Moon is Illuminated
Feb 9
Waning Crescent
Feb 10
New
Feb 17
First Quarter
Feb 25
Full
Mar 4
Last Quarter

Hourly Weather History & Observations

Time (EST) Temp. Windchill Dew Point Humidity Pressure Visibility Wind Dir Wind Speed Gust Speed Precip Events Conditions
12:15 AM 4.8 °F - 1.6 °F 86% 30.38 in 10.0 mi Calm Calm - N/A   Clear
12:34 AM 1.6 °F -6.0 °F -1.5 °F 87% 30.37 in 10.0 mi NNE 3.5 mph - N/A   Clear
12:54 AM 1.6 °F -6.0 °F -1.8 °F 86% 30.37 in 10.0 mi NNE 3.5 mph - N/A   Clear
1:15 AM 1.4 °F - -1.7 °F 87% 30.38 in 10.0 mi Calm Calm - N/A   Clear
1:34 AM 1.2 °F -6.4 °F -2.2 °F 86% 30.38 in 10.0 mi NE 3.5 mph - N/A   Clear
1:54 AM 0.5 °F - -2.9 °F 85% 30.39 in 10.0 mi Calm Calm - N/A   Clear
2:15 AM 0.3 °F -7.5 °F -3.3 °F 85% 30.38 in 10.0 mi NE 3.5 mph - N/A   Clear
2:34 AM -0.4 °F -8.3 °F -4.0 °F 85% 30.38 in 10.0 mi North 3.5 mph - N/A   Clear
2:54 AM -0.6 °F - -4.0 °F 85% 30.39 in 10.0 mi Calm Calm - N/A   Clear
3:15 AM -1.3 °F - -4.7 °F 85% 30.39 in 10.0 mi Calm Calm - N/A   Clear
3:34 AM -1.5 °F - -5.1 °F 85% 30.38 in 10.0 mi Calm Calm - N/A   Clear
3:55 AM -2.2 °F -10.4 °F -6.0 °F 84% 30.38 in 10.0 mi NE 3.5 mph - N/A   Clear
4:15 AM -2.2 °F -10.4 °F -5.8 °F 85% 30.38 in 10.0 mi NE 3.5 mph - N/A   Clear
4:34 AM -2.2 °F -10.4 °F -5.8 °F 85% 30.38 in 10.0 mi ENE 3.5 mph - N/A   Clear
4:55 AM -2.7 °F -13.1 °F -6.3 °F 85% 30.39 in 10.0 mi NE 4.6 mph - N/A   Clear
5:14 AM -2.2 °F -14.2 °F -5.6 °F 85% 30.38 in 10.0 mi NE 5.8 mph - N/A   Clear
5:34 AM -2.0 °F -12.2 °F -5.8 °F 84% 30.38 in 10.0 mi NE 4.6 mph - N/A   Clear
5:55 AM -2.2 °F - -6.0 °F 84% 30.39 in 10.0 mi Calm Calm - N/A   Clear
6:14 AM -3.8 °F - -7.8 °F 83% 30.39 in 10.0 mi Calm Calm - N/A   Clear
6:34 AM -4.2 °F -14.8 °F -8.1 °F 83% 30.38 in 10.0 mi NE 4.6 mph - N/A   Clear
6:55 AM -3.6 °F -15.9 °F -7.6 °F 83% 30.38 in 10.0 mi ENE 5.8 mph - N/A   Clear
7:14 AM -4.4 °F -15.0 °F -8.3 °F 83% 30.39 in 10.0 mi NE 4.6 mph - N/A   Clear
7:34 AM -4.4 °F -15.0 °F -8.3 °F 83% 30.39 in 10.0 mi ENE 4.6 mph - N/A   Clear
7:55 AM -5.1 °F -15.8 °F -8.9 °F 84% 30.39 in 7.0 mi ENE 4.6 mph - N/A   Clear
8:14 AM -4.9 °F -17.4 °F -8.7 °F 84% 30.39 in 10.0 mi ENE 5.8 mph - N/A   Clear
8:34 AM -4.0 °F -14.6 °F -8.0 °F 83% 30.39 in 10.0 mi ENE 4.6 mph - N/A   Clear
8:55 AM -3.8 °F -17.5 °F -7.8 °F 83% 30.39 in 10.0 mi ENE 6.9 mph - N/A   Clear
9:14 AM -2.2 °F -15.6 °F -5.8 °F 85% 30.39 in 10.0 mi ENE 6.9 mph - N/A   Clear
9:34 AM 0.5 °F -12.3 °F -3.1 °F 85% 30.38 in 10.0 mi ENE 6.9 mph - N/A   Clear
9:55 AM 3.2 °F -9.1 °F -0.0 °F 86% 30.38 in 10.0 mi ENE 6.9 mph - N/A   Clear
10:14 AM 5.4 °F -5.2 °F 2.1 °F 86% 30.38 in 10.0 mi ENE 5.8 mph - N/A   Clear
10:34 AM 7.9 °F -2.2 °F 4.8 °F 87% 30.37 in 10.0 mi ENE 5.8 mph - N/A   Clear
10:55 AM 12.0 °F 5.9 °F 8.2 °F 85% 30.37 in 10.0 mi ENE 3.5 mph - N/A   Clear
11:14 AM 13.5 °F 7.5 °F 8.6 °F 81% 30.37 in 10.0 mi East 3.5 mph - N/A   Clear
11:34 AM 15.4 °F 9.8 °F 9.9 °F 79% 30.36 in 10.0 mi ENE 3.5 mph - N/A   Clear
11:55 AM 18.0 °F - 10.9 °F 74% 30.35 in 10.0 mi Calm Calm - N/A   Clear
12:14 PM 20.5 °F 12.8 °F 12.2 °F 70% 30.34 in 10.0 mi SSW 5.8 mph - N/A   Clear
12:35 PM 22.5 °F 17.8 °F 13.5 °F 68% 30.33 in 10.0 mi SW 3.5 mph - N/A   Clear
12:55 PM 24.1 °F - 14.0 °F 65% 30.31 in 10.0 mi Calm Calm - N/A   Clear
1:14 PM 23.4 °F - 12.9 °F 64% 30.30 in 10.0 mi Calm Calm - N/A   Clear
1:34 PM 25.0 °F - 14.4 °F 64% 30.30 in 10.0 mi Calm Calm - N/A   Clear
1:55 PM 25.5 °F - 13.8 °F 61% 30.29 in 10.0 mi Calm Calm - N/A   Clear
2:14 PM 28.0 °F - 15.3 °F 59% 30.29 in 10.0 mi Calm Calm - N/A   Clear
2:35 PM 28.0 °F - 13.8 °F 55% 30.28 in 10.0 mi Calm Calm - N/A   Clear
2:54 PM 28.0 °F - 14.4 °F 57% 30.27 in 10.0 mi Calm Calm - N/A   Clear
3:14 PM 28.0 °F - 14.0 °F 56% 30.26 in 10.0 mi Calm Calm - N/A   Clear
3:35 PM 28.0 °F - 14.7 °F 57% 30.26 in 10.0 mi Calm Calm - N/A   Clear
3:54 PM 27.7 °F - 13.8 °F 56% 30.26 in 10.0 mi Calm Calm - N/A   Clear
4:14 PM 28.0 °F - 14.2 °F 56% 30.26 in 10.0 mi Calm Calm - N/A   Clear
4:35 PM 28.0 °F - 13.5 °F 54% 30.24 in 10.0 mi Calm Calm - N/A   Clear
4:54 PM 28.0 °F - 13.1 °F 54% 30.24 in 10.0 mi Calm Calm - N/A   Clear
5:14 PM 28.0 °F - 12.0 °F 51% 30.24 in 10.0 mi Calm Calm - N/A   Clear
5:35 PM 28.0 °F - 12.9 °F 53% 30.23 in 10.0 mi Calm Calm - N/A   Clear
5:54 PM 27.9 °F 24.0 °F 14.4 °F 57% 30.22 in 10.0 mi East 3.5 mph - N/A   Clear
6:14 PM 25.5 °F - 14.4 °F 63% 30.22 in 10.0 mi Calm Calm - N/A   Clear
6:35 PM 25.2 °F 20.9 °F 14.2 °F 63% 30.22 in 10.0 mi East 3.5 mph - N/A   Clear
6:54 PM 20.7 °F - 11.3 °F 67% 30.22 in 10.0 mi Calm Calm - N/A   Clear
7:14 PM 20.5 °F 15.6 °F 13.3 °F 74% 30.22 in 10.0 mi South 3.5 mph - N/A   Clear
7:35 PM 25.5 °F 21.3 °F 13.8 °F 61% 30.22 in 10.0 mi South 3.5 mph - N/A   Clear
7:54 PM 25.5 °F 21.3 °F 13.6 °F 61% 30.21 in 10.0 mi South 3.5 mph - N/A   Clear
8:14 PM 25.2 °F 20.9 °F 13.5 °F 61% 30.21 in 10.0 mi South 3.5 mph - N/A   Clear
8:35 PM 23.4 °F 18.9 °F 12.6 °F 63% 30.21 in 10.0 mi South 3.5 mph - N/A   Clear
8:54 PM 22.1 °F 17.4 °F 11.8 °F 65% 30.21 in 10.0 mi SSW 3.5 mph - N/A   Clear
9:14 PM 21.2 °F 16.4 °F 11.7 °F 67% 30.20 in 10.0 mi SSW 3.5 mph - N/A   Mostly Cloudy
9:35 PM 21.2 °F 16.4 °F 12.2 °F 68% 30.20 in 10.0 mi SSW 3.5 mph - N/A   Overcast
9:54 PM 22.1 °F 17.4 °F 13.3 °F 69% 30.20 in 10.0 mi South 3.5 mph - N/A   Overcast
10:14 PM 23.0 °F - 14.4 °F 70% 30.20 in 10.0 mi Calm Calm - N/A   Overcast
10:35 PM 23.0 °F 18.4 °F 14.5 °F 70% 30.20 in 10.0 mi South 3.5 mph - N/A   Overcast
10:54 PM 23.0 °F - 14.7 °F 71% 30.19 in 10.0 mi Calm Calm - N/A   Overcast
11:15 PM 23.0 °F - 14.9 °F 71% 30.19 in 10.0 mi Calm Calm - N/A   Overcast
11:35 PM 23.0 °F - 14.9 °F 71% 30.18 in 10.0 mi Calm Calm - N/A   Overcast
11:54 PM 23.0 °F - 14.9 °F 71% 30.19 in 10.0 mi Calm Calm - N/A   Overcast